TimeEST,TemperatureF,Dew PointF,Humidity,Sea Level PressureIn,VisibilityMPH,Wind Direction,Wind SpeedMPH,Gust SpeedMPH,PrecipitationIn,Events,Conditions,WindDirDegrees,DateUTC
12:15 AM,51.8,44.6,76,30.19,10.0,North,8.1,-,N/A,,Overcast,10,2012-11-20 05:15:00
12:35 AM,51.8,44.6,76,30.18,10.0,North,4.6,-,N/A,,Overcast,360,2012-11-20 05:35:00
12:55 AM,51.8,44.6,76,30.18,10.0,North,5.8,-,N/A,,Overcast,10,2012-11-20 05:55:00
1:15 AM,51.8,44.6,76,30.17,10.0,NNE,4.6,-,N/A,,Overcast,30,2012-11-20 06:15:00
1:35 AM,51.8,44.6,76,30.17,10.0,NNE,5.8,-,N/A,,Overcast,20,2012-11-20 06:35:00
1:55 AM,51.8,44.6,76,30.16,10.0,NNE,4.6,-,N/A,,Overcast,30,2012-11-20 06:55:00
2:15 AM,50.0,44.6,82,30.16,10.0,NNE,4.6,-,N/A,,Overcast,20,2012-11-20 07:15:00
2:35 AM,50.0,44.6,82,30.16,10.0,NNE,3.5,-,N/A,,Overcast,20,2012-11-20 07:35:00
2:55 AM,50.0,44.6,82,30.16,10.0,NNE,5.8,-,N/A,,Overcast,30,2012-11-20 07:55:00
3:15 AM,50.0,44.6,82,30.15,10.0,NNE,4.6,-,N/A,,Overcast,20,2012-11-20 08:15:00
3:35 AM,50.0,44.6,82,30.15,10.0,NE,4.6,-,N/A,,Overcast,40,2012-11-20 08:35:00
7:15 AM,50.0,44.6,82,30.16,10.0,North,5.8,-,N/A,,Overcast,10,2012-11-20 12:15:00
7:35 AM,50.0,44.6,82,30.16,10.0,NNE,3.5,-,N/A,,Overcast,20,2012-11-20 12:35:00
7:55 AM,50.0,44.6,82,30.16,10.0,NNE,4.6,-,N/A,,Overcast,30,2012-11-20 12:55:00
8:15 AM,51.8,44.6,76,30.16,10.0,North,6.9,-,N/A,,Overcast,10,2012-11-20 13:15:00
8:35 AM,51.8,46.4,82,30.16,10.0,NNE,3.5,-,N/A,,Overcast,20,2012-11-20 13:35:00
8:55 AM,53.6,46.4,77,30.16,10.0,North,6.9,-,N/A,,Overcast,10,2012-11-20 13:55:00
9:15 AM,53.6,46.4,77,30.16,10.0,Calm,Calm,-,N/A,,Overcast,0,2012-11-20 14:15:00
9:35 AM,53.6,46.4,77,30.16,10.0,Calm,Calm,-,N/A,,Overcast,0,2012-11-20 14:35:00
9:55 AM,55.4,46.4,72,30.16,10.0,Calm,Calm,-,N/A,,Overcast,0,2012-11-20 14:55:00
10:15 AM,55.4,46.4,72,30.15,10.0,NNE,3.5,-,N/A,,Overcast,30,2012-11-20 15:15:00
10:35 AM,57.2,46.4,67,30.15,10.0,North,4.6,-,N/A,,Overcast,350,2012-11-20 15:35:00
10:55 AM,59.0,46.4,63,30.15,10.0,North,5.8,-,N/A,,Overcast,360,2012-11-20 15:55:00
11:15 AM,60.8,46.4,59,30.14,10.0,North,5.8,-,N/A,,Overcast,360,2012-11-20 16:15:00
11:35 AM,59.0,46.4,63,30.13,10.0,NNW,6.9,-,N/A,,Overcast,340,2012-11-20 16:35:00
11:55 AM,60.8,46.4,59,30.13,10.0,NNE,6.9,-,N/A,,Overcast,30,2012-11-20 16:55:00
12:15 PM,57.2,46.4,67,30.12,10.0,NNE,4.6,-,N/A,,Overcast,30,2012-11-20 17:15:00
12:35 PM,57.2,44.6,63,30.11,10.0,North,3.5,-,N/A,,Overcast,10,2012-11-20 17:35:00
12:55 PM,57.2,44.6,63,30.11,10.0,North,3.5,-,N/A,,Overcast,360,2012-11-20 17:55:00
1:15 PM,57.2,44.6,63,30.11,10.0,Calm,Calm,-,N/A,,Overcast,0,2012-11-20 18:15:00
1:35 PM,57.2,44.6,63,30.10,10.0,Calm,Calm,-,N/A,,Overcast,0,2012-11-20 18:35:00
1:55 PM,57.2,44.6,63,30.10,10.0,North,5.8,-,N/A,,Overcast,10,2012-11-20 18:55:00
2:15 PM,57.2,44.6,63,30.09,10.0,North,3.5,-,N/A,,Overcast,10,2012-11-20 19:15:00
2:35 PM,57.2,44.6,63,30.10,10.0,Calm,Calm,-,N/A,,Overcast,0,2012-11-20 19:35:00
3:15 PM,55.4,44.6,67,30.09,10.0,Calm,Calm,-,N/A,,Overcast,0,2012-11-20 20:15:00
3:35 PM,55.4,44.6,67,30.09,10.0,NE,4.6,-,N/A,,Overcast,50,2012-11-20 20:35:00
3:55 PM,55.4,44.6,67,30.09,10.0,Calm,Calm,-,N/A,,Overcast,0,2012-11-20 20:55:00
4:15 PM,55.4,44.6,67,30.09,10.0,Calm,Calm,-,N/A,,Overcast,0,2012-11-20 21:15:00
4:35 PM,53.6,44.6,72,30.09,10.0,Calm,Calm,-,N/A,,Overcast,0,2012-11-20 21:35:00
4:55 PM,51.8,44.6,76,30.09,10.0,Calm,Calm,-,N/A,,Mostly Cloudy,0,2012-11-20 21:55:00
5:15 PM,51.8,44.6,76,30.09,10.0,Calm,Calm,-,N/A,,Clear,0,2012-11-20 22:15:00
5:35 PM,51.8,44.6,76,30.09,10.0,Calm,Calm,-,N/A,,Clear,0,2012-11-20 22:35:00
5:55 PM,50.0,44.6,82,30.10,10.0,Calm,Calm,-,N/A,,Scattered Clouds,0,2012-11-20 22:55:00
6:15 PM,50.0,44.6,82,30.11,10.0,Calm,Calm,-,N/A,,Scattered Clouds,0,2012-11-20 23:15:00
6:35 PM,50.0,44.6,82,30.11,10.0,Calm,Calm,-,N/A,,Scattered Clouds,0,2012-11-20 23:35:00
6:55 PM,50.0,44.6,82,30.11,10.0,Calm,Calm,-,N/A,,Scattered Clouds,0,2012-11-20 23:55:00
7:15 PM,48.2,44.6,87,30.12,10.0,Calm,Calm,-,N/A,,Scattered Clouds,0,2012-11-21 00:15:00
7:35 PM,48.2,44.6,87,30.12,10.0,Calm,Calm,-,N/A,,Clear,0,2012-11-21 00:35:00
7:55 PM,46.4,42.8,87,30.12,10.0,Calm,Calm,-,N/A,,Clear,0,2012-11-21 00:55:00
8:15 PM,46.4,44.6,93,30.12,10.0,Calm,Calm,-,N/A,,Mostly Cloudy,0,2012-11-21 01:15:00
8:35 PM,48.2,44.6,87,30.12,10.0,Calm,Calm,-,N/A,,Overcast,0,2012-11-21 01:35:00
8:55 PM,48.2,44.6,87,30.12,10.0,North,3.5,-,N/A,,Overcast,10,2012-11-21 01:55:00
9:15 PM,48.2,44.6,87,30.12,10.0,Calm,Calm,-,N/A,,Overcast,0,2012-11-21 02:15:00
9:35 PM,48.2,44.6,87,30.13,10.0,Calm,Calm,-,N/A,,Overcast,0,2012-11-21 02:35:00
9:55 PM,50.0,44.6,82,30.13,10.0,Calm,Calm,-,N/A,,Overcast,0,2012-11-21 02:55:00
10:15 PM,50.0,44.6,82,30.12,10.0,Calm,Calm,-,N/A,,Overcast,0,2012-11-21 03:15:00
10:35 PM,48.2,44.6,87,30.12,10.0,NNE,3.5,-,N/A,,Overcast,30,2012-11-21 03:35:00
10:55 PM,48.2,44.6,87,30.12,10.0,Calm,Calm,-,N/A,,Overcast,0,2012-11-21 03:55:00
11:15 PM,48.2,44.6,87,30.12,10.0,Calm,Calm,-,N/A,,Overcast,0,2012-11-21 04:15:00
11:35 PM,46.4,42.8,87,30.12,10.0,Calm,Calm,-,N/A,,Scattered Clouds,0,2012-11-21 04:35:00
11:55 PM,46.4,42.8,87,30.12,10.0,Calm,Calm,-,N/A,,Scattered Clouds,0,2012-11-21 04:55:00